EA1AY-13 Weather Reports


Display with metric or nautical units.
time (UTC)temp
F
wind
direction
speed
MPH
gust
MPH
rain 1hr
in
rain 24hr
in
rain mn
in
humidity
%
barometer
mb
20260901040517 60 0.0 0.0 0.00 0.00 0.00 42 1022.0
20260901035538 60 0.0 0.0 0.00 0.00 0.00 45 1022.1
20260901034518 60 0.0 1.0 0.00 0.00 0.00 46 1022.0
20260901033517 60 0.0 0.0 0.00 0.00 0.00 48 1022.2
20260901032517 60 0.0 0.0 0.00 0.00 0.00 47 1022.2
20260901031517 60 0.0 0.0 0.00 0.00 0.00 47 1022.2
20260901030517 60 0.0 0.0 0.00 0.00 0.00 46 1022.2
20260901025517 60 0.0 0.0 0.00 0.00 0.00 51 1022.2
20260901024517 60 0.0 0.0 0.00 0.00 0.00 51 1022.2
20260901023517 60 0.0 0.0 0.00 0.00 0.00 52 1022.2
20260901022518 61 0.0 0.0 0.00 0.00 0.00 53 1022.4
20260901021517 61 0.0 1.0 0.00 0.00 0.00 51 1022.4
20260901020537 61 0.0 2.0 0.00 0.00 0.00 47 1022.4
20260901015517 61 0.0 0.0 0.00 0.00 0.00 48 1022.6
20260901014538 61 0.0 0.0 0.00 0.00 0.00 46 1022.6
20260901013517 61 0.0 0.0 0.00 0.00 0.00 50 1022.8
20260901012537 61 0.0 0.0 0.00 0.00 0.00 48 1023.0
20260901011517 60 0.0 0.0 0.00 0.00 0.00 54 1022.9
20260901010517 60 0.0 1.0 0.00 0.00 0.00 56 1022.9
20260901005517 61 0.0 0.0 0.00 0.00 0.00 56 1022.9
20260901004517 61 0.0 0.0 0.00 0.00 0.00 58 1023.2
20260901003517 61 0.0 0.0 0.00 0.00 0.00 58 1023.2
20260901002538 61 0.0 0.0 0.00 0.00 0.00 57 1023.3
20260901001537 62 0.0 0.0 0.00 0.00 0.00 58 1023.4
20260901000517 62 0.0 0.0 0.00 0.00 0.00 54 1023.5
20260831235517 61 0.0 0.0 0.00 0.00 0.00 56 1023.5
20260831234517 61 0.0 0.0 0.00 0.00 0.00 57 1023.4
20260831233517 61 0.0 0.0 0.00 0.00 0.00 59 1023.5
20260831232517 61 0.0 0.0 0.00 0.00 0.00 56 1023.6
20260831231517 61 0.0 0.0 0.00 0.00 0.00 61 1023.5
20260831230537 61 0.0 0.0 0.00 0.00 0.00 63 1023.5
20260831225517 61 0.0 0.0 0.00 0.00 0.00 65 1023.5
20260831224517 61 0.0 0.0 0.00 0.00 0.00 66 1023.6
20260831223537 61 0.0 0.0 0.00 0.00 0.00 70 1023.8
20260831222517 62 0.0 1.0 0.00 0.00 0.00 70 1023.8
20260831221517 62 0.0 1.0 0.00 0.00 0.00 71 1023.9
20260831220518 62 0.0 0.0 0.00 0.00 0.00 71 1023.9
20260831215517 62 0.0 0.0 0.00 0.00 0.00 73 1023.9
20260831214537 62 0.0 0.0 0.00 0.00 0.00 74 1024.1
20260831213516 62 0.0 0.0 0.00 0.00 0.00 74 1024.2
20260831212516 62 0.0 0.0 0.00 0.00 0.00 75 1024.2
20260831211515 63 0.0 1.0 0.00 0.00 0.00 76 1024.2
20260831210516 63 0.0 0.0 0.00 0.00 0.00 78 1024.1
20260831205516 63 0.0 1.0 0.00 0.00 0.00 79 1024.3
20260831204516 63 0.0 1.0 0.00 0.00 0.00 81 1024.1
20260831203537 63 0.0 1.0 0.00 0.00 0.00 81 1024.0
20260831202516 64 135 1.0 1.0 0.00 0.00 0.00 82 1023.9
20260831201536 64 0.0 0.0 0.00 0.00 0.00 82 1023.9
20260831200516 64 0.0 1.0 0.00 0.00 0.00 83 1023.8
20260831195516 65 0.0 0.0 0.00 0.00 0.00 83 1023.7
20260831194516 66 0.0 0.0 0.00 0.00 0.00 82 1023.7
20260831193516 67 0.0 0.0 0.00 0.00 0.00 81 1023.7
20260831192516 67 0.0 0.0 0.00 0.00 0.00 80 1023.6
20260831191516 68 0.0 0.0 0.00 0.00 0.00 80 1023.5
20260831190516 68 0.0 1.0 0.00 0.00 0.00 80 1023.4
20260831185516 68 0.0 1.0 0.00 0.00 0.00 79 1023.4
20260831184516 69 0.0 1.0 0.00 0.00 0.00 79
20260831183536 69 0.0 0.0 0.00 0.00 0.00 79
20260831182516 70 0.0 0.0 0.00 0.00 0.00 78
20260831181517 71 135 1.0 3.0 0.00 0.00 0.00 76
20260831180516 71 0.0 4.0 0.00 0.00 0.00 75
20260831175516 72 0.0 3.0 0.00 0.00 0.00 74
20260831174516 73 0.0 2.0 0.00 0.00 0.00 73
20260831173517 73 0.0 2.0 0.00 0.00 0.00 72
20260831172516 74 135 1.0 3.0 0.00 0.00 0.00 69
20260831171516 75 0.0 2.0 0.00 0.00 0.00 67
20260831170516 76 0.0 2.0 0.00 0.00 0.00 64
20260831165516 75 0.0 1.0 0.00 0.00 0.00 65
20260831164516 75 135 1.0 5.0 0.00 0.00 0.00 64 1023.2
20260831163515 76 135 1.0 4.0 0.00 0.00 0.00 63 1023.3
20260831162516 77 135 1.0 4.0 0.00 0.00 0.00 59 1023.2
20260831161517 77 135 1.0 4.0 0.00 0.00 0.00 59 1023.3
20260831160535 78 135 1.0 5.0 0.00 0.00 0.00 58 1023.3
20260831155516 78 135 1.0 5.0 0.00 0.00 0.00 56 1023.2
20260831154515 78 135 1.0 3.0 0.00 0.00 0.00 53 1023.2
20260831153516 78 135 1.0 5.0 0.00 0.00 0.00 56 1023.2
20260831152516 80 0.0 2.0 0.00 0.00 0.00 52 1023.3
20260831151516 80 0.0 2.0 0.00 0.00 0.00 51 1023.2
20260831150516 80 135 1.0 4.0 0.00 0.00 0.00 53 1023.3
20260831145516 80 0.0 2.0 0.00 0.00 0.00 53 1023.4
20260831144516 79 135 1.0 2.0 0.00 0.00 0.00 54 1023.5
20260831143516 78 135 1.0 3.0 0.00 0.00 0.00 57 1023.5
20260831142515 77 135 1.0 4.0 0.00 0.00 0.00 59 1023.7
20260831141516 78 135 1.0 4.0 0.00 0.00 0.00 57 1023.7
20260831140516 78 135 2.0 8.0 0.00 0.00 0.00 56 1023.8
20260831135516 79 135 1.0 3.0 0.00 0.00 0.00 51 1023.9
20260831134515 79 135 1.0 3.0 0.00 0.00 0.00 53 1023.8
20260831133536 79 0.0 2.0 0.00 0.00 0.00 52 1023.8
20260831132515 79 135 1.0 3.0 0.00 0.00 0.00 52 1023.8
20260831131515 78 0.0 2.0 0.00 0.00 0.00 53 1023.8
20260831130516 79 0.0 1.0 0.00 0.00 0.00 52 1023.9
20260831125516 77 135 1.0 2.0 0.00 0.00 0.00 55 1023.9
20260831124537 75 0.0 1.0 0.00 0.00 0.00 61 1024.1
20260831123516 74 135 1.0 5.0 0.00 0.00 0.00 60 1024.1
20260831122536 74 135 3.0 8.0 0.00 0.00 0.00 60 1024.2
20260831121516 74 0.0 0.0 0.00 0.00 0.00 64 1024.3
20260831120518 73 135 1.0 4.0 0.00 0.00 0.00 66 1024.4
20260831115516 72 135 2.0 5.0 0.00 0.00 0.00 67 1024.4
20260831114538 72 135 3.0 6.0 0.00 0.00 0.00 66 1024.5
20260831113515 73 135 2.0 4.0 0.00 0.00 0.00 68 1024.4
20260831112517 73 135 1.0 5.0 0.00 0.00 0.00 69 1024.4
20260831111516 72 135 2.0 5.0 0.00 0.00 0.00 70 1024.5
20260831110538 73 135 3.0 6.0 0.00 0.00 0.00 67 1024.4
20260831105518 74 135 1.0 4.0 0.00 0.00 0.00 62 1024.3
20260831104518 74 135 2.0 6.0 0.00 0.00 0.00 64 1024.3
20260831103518 73 135 2.0 5.0 0.00 0.00 0.00 67 1024.4
20260831102518 74 0.0 2.0 0.00 0.00 0.00 66 1024.3
20260831101538 74 0.0 2.0 0.00 0.00 0.00 65 1024.4
20260831100517 73 135 1.0 4.0 0.00 0.00 0.00 66 1024.3
20260831095538 71 0.0 3.0 0.00 0.00 0.00 66 1024.2
20260831094517 71 135 1.0 6.0 0.00 0.00 0.00 66 1024.2
20260831093515 73 135 1.0 6.0 0.00 0.00 0.00 65 1024.2
20260831092517 71 0.0 2.0 0.00 0.00 0.00 74 1024.3
20260831091519 70 0.0 0.0 0.00 0.00 0.00 76 1024.1
20260831090639 70 135 1.0 3.0 0.00 0.00 0.00 72 1024.2
20260831085517 70 0.0 2.0 0.00 0.00 0.00 71 1024.2
20260831084518 70 0.0 1.0 0.00 0.00 0.00 73 1024.2
20260831083538 70 0.0 2.0 0.00 0.00 0.00 77 1024.1
20260831082516 68 0.0 3.0 0.00 0.00 0.00 81 1024.1
20260831081518 67 0.0 1.0 0.00 0.00 0.00 82 1024.1
20260831080517 66 135 1.0 3.0 0.00 0.00 0.00 82 1024.0
20260831075518 66 0.0 0.0 0.00 0.00 0.00 82 1024.1
20260831074517 65 0.0 0.0 0.00 0.00 0.00 80 1024.0
20260831073517 65 135 1.0 3.0 0.00 0.00 0.00 79 1023.8
20260831072518 64 135 1.0 3.0 0.00 0.00 0.00 78 1023.6
20260831071538 63 0.0 0.0 0.00 0.00 0.00 70 1023.5
20260831070517 61 0.0 0.0 0.00 0.00 0.00 67 1023.4
20260831065518 61 0.0 0.0 0.00 0.00 0.00 66 1023.3
20260831065040 0 0.0 0.0 0.00 0.00 0.00
20260831064538 0 0.0 0.0 0.00 0.00 0.00
20260831063518 0 0.0 0.0 0.00 0.00 0.00
20260831063024 0 0.0 0.0 0.00 0.00 0.00
20260831062540 0 0.0 0.0 0.00 0.00 0.00
20260831062018 0 0.0 0.0 0.00 0.00 0.00
20260831061017 0 0.0 0.0 0.00 0.00 0.00
20260831060544 0 0.0 0.0 0.00 0.00 0.00
20260831060041 0 0.0 0.0 0.00 0.00 0.00
20260831055517 0 0.0 0.0 0.00 0.00 0.00
20260831054517 0 0.0 0.0 0.00 0.00 0.00
20260831054043 0 0.0 0.0 0.00 0.00 0.00
20260831053540 0 0.0 0.0 0.00 0.00 0.00
20260831053018 0 0.0 0.0 0.00 0.00 0.00
20260831052018 0 0.0 0.0 0.00 0.00 0.00
20260831051524 0 0.0 0.0 0.00 0.00 0.00
20260831051040 0 0.0 0.0 0.00 0.00 0.00
20260831050517 0 0.0 0.0 0.00 0.00 0.00
20260831045517 0 0.0 0.0 0.00 0.00 0.00
20260831045023 0 0.0 0.0 0.00 0.00 0.00
20260831044540 0 0.0 0.0 0.00 0.00 0.00
20260831044017 0 0.0 0.0 0.00 0.00 0.00
20260831043017 0 0.0 0.0 0.00 0.00 0.00
20260831042501 63 0.0 0.0 0.00 0.00 0.00 79 1022.7
20260831042019 63 0.0 2.0 0.00 0.00 0.00 79 1022.7
20260831041538 62 0.0 3.0 0.00 0.00 0.00 79 1022.6